Location: Climax
(33.2048°N, 96.4497°W)
Time: 12:12:49
(UTC+00:00)

Nadezhda 4 Rocket - Pass Details

Date: 08 December 2021
Orbit: 949 x 992 km, 82.9° (Epoch: 23 January)

Event Time Altitude Azimuth Distance (km) Brightness Sun altitude
Rises 12:26:43 0° 207° (SSW) 3,621 6.9 -10.5°
Reaches altitude 10° 12:29:24 10° 215° (SW) 2,684 6.2 -10.0°
Maximum altitude 12:35:01 37° 281° (WNW) 1,457 4.5 -8.9°
Drops below altitude 10° 12:40:44 10° 348° (NNW) 2,724 6.0 -7.8°
Sets 12:43:29 0° 357° (N) 3,682 6.8 -7.2°
